QPF
0.01 0.02 0.02 0.03 0.05 0.08 0.08 0.07 0.05 0.03 0.01 0.01 0.01 0.02 0.03 0.04 0.06 0.05 0.05 0.07 0.08 0.10 0.11 0.08 0.04 0.04 0.03 0.03 0.03 0.03 0.04 0.05 0.05 0.05 0.04 0.05 0.06 0.06
0.03 0.02 0.02 0.05 0.07 0.08 0.09 0.09 0.07 0.05 0.03 0.01 0.02 0.04 0.06 0.06 0.07 0.07 0.06 0.07 0.07 0.08 0.06 0.04 0.04 0.03 0.03 0.03 0.03 0.03 0.03 0.04 0.05 0.05 0.05 0.05 0.05 0.05
0.03 0.04 0.05 0.07 0.07 0.07 0.09 0.08 0.07 0.05 0.04 0.03 0.03 0.04 0.05 0.07 0.08 0.06 0.04 0.04 0.04 0.07 0.05 0.04 0.04 0.04 0.04 0.04 0.03 0.02 0.01 0.01 0.02 0.03 0.02 0.03 0.03 0.04
0.04 0.06 0.07 0.07 0.07 0.07 0.08 0.07 0.06 0.07 0.06 0.05 0.03 0.04 0.04 0.04 0.04 0.05 0.03 0.03 0.03 0.05 0.05 0.04 0.03 0.02 0.02 0.03 0.03 0.02 0.02 0.02 0.01 0.02 0.02 0.02 0.02 0.02
0.06 0.06 0.07 0.07 0.07 0.07 0.06 0.06 0.06 0.06 0.05 0.05 0.05 0.06 0.04 0.03 0.04 0.04 0.03 0.04 0.04 0.05 0.05 0.04 0.02 0.02 0.03 0.02 0.02 0.02 0.02 0.02 0.01 0.01 0.02 0.02 0.02 0.02
0.11 0.09 0.08 0.08 0.07 0.05 0.07 0.05 0.04 0.04 0.03 0.04 0.04 0.04 0.03 0.03 0.04 0.04 0.04 0.03 0.03 0.03 0.04 0.04 0.03 0.03 0.03 0.03 0.03 0.02 0.03 0.03 0.02 0.01 0.01 0.02 0.02 0.02
0.18 0.15 0.12 0.13 0.11 0.08 0.07 0.07 0.05 0.04 0.03 0.04 0.04 0.03 0.02 0.02 0.03 0.04 0.04 0.04 0.03 0.02 0.02 0.02 0.03 0.03 0.03 0.03 0.04 0.04 0.03 0.04 0.03 0.03 0.02 0.02 0.01 0.01
0.11 0.11 0.11 0.11 0.10 0.10 0.09 0.10 0.09 0.06 0.03 0.03 0.03 0.02 0.02 0.02 0.02 0.04 0.04 0.04 0.03 0.03 0.03 0.02 0.02 0.03 0.03 0.02 0.03 0.04 0.04 0.04 0.04 0.04 0.03 0.02 0.02 0.02
0.08 0.08 0.08 0.07 0.07 0.07 0.08 0.09 0.09 0.07 0.05 0.03 0.02 0.02 0.02 0.03 0.03 0.03 0.03 0.02 0.02 0.02 0.04 0.03 0.02 0.02 0.03 0.06 0.05 0.05 0.05 0.04 0.04 0.04 0.03 0.02 0.02 0.02
0.08 0.08 0.06 0.06 0.05 0.05 0.06 0.06 0.05 0.05 0.05 0.04 0.02 0.02 0.02 0.03 0.03 0.02 0.02 0.02 0.01 0.02 0.03 0.03 0.04 0.03 0.03 0.03 0.04 0.04 0.06 0.06 0.05 0.04 0.03 0.02 0.02 0.02
0.07 0.08 0.06 0.05 0.04 0.05 0.06 0.05 0.04 0.03 0.05 0.04 0.03 0.02 0.02 0.02 0.03 0.02 0.02 0.02 0.02 0.02 0.03 0.03 0.03 0.03 0.03 0.02 0.03 0.03 0.03 0.04 0.04 0.04 0.03 0.01 0.01 0.01
0.06 0.06 0.06 0.06 0.04 0.04 0.03 0.03 0.03 0.03 0.05 0.05 0.05 0.04 0.02 0.02 0.02 0.02 0.02 0.03 0.04 0.03 0.03 0.04 0.03 0.04 0.03 0.03 0.03 0.04 0.03 0.03 0.04 0.03 0.02 0.01 0.01 0.01
0.06 0.06 0.06 0.05 0.04 0.04 0.04 0.03 0.03 0.04 0.06 0.06 0.05 0.03 0.03 0.02 0.02 0.02 0.03 0.04 0.04 0.03 0.03 0.05 0.05 0.05 0.05 0.05 0.04 0.03 0.03 0.03 0.03 0.02 0.02 0.01 0.01 0.01
0.08 0.08 0.07 0.06 0.05 0.04 0.03 0.03 0.03 0.04 0.04 0.03 0.03 0.02 0.02 0.03 0.04 0.06 0.05 0.04 0.03 0.02 0.03 0.04 0.05 0.05 0.06 0.06 0.06 0.06 0.05 0.03 0.02 0.02 0.01 0.01 0.01 0.01
0.09 0.10 0.10 0.09 0.08 0.06 0.06 0.06 0.05 0.04 0.04 0.03 0.03 0.03 0.03 0.04 0.06 0.08 0.06 0.05 0.03 0.02 0.03 0.04 0.04 0.05 0.05 0.05 0.06 0.07 0.07 0.06 0.04 0.03 0.02 0.01 0.01 0.01
0.10 0.12 0.11 0.10 0.10 0.10 0.11 0.11 0.09 0.07 0.06 0.05 0.05 0.05 0.05 0.04 0.04 0.06 0.06 0.05 0.05 0.04 0.04 0.03 0.03 0.03 0.04 0.04 0.03 0.03 0.04 0.05 0.04 0.03 0.02 0.02 0.02 0.02
0.08 0.09 0.09 0.08 0.07 0.08 0.08 0.09 0.08 0.07 0.06 0.05 0.05 0.04 0.03 0.03 0.04 0.05 0.05 0.05 0.05 0.05 0.05 0.05 0.04 0.04 0.03 0.03 0.03 0.02 0.02 0.03 0.02 0.02 0.02 0.01 0.01 0.01
0.06 0.05 0.06 0.05 0.05 0.05 0.05 0.05 0.05 0.04 0.04 0.03 0.03 0.03 0.02 0.02 0.02 0.03 0.05 0.05 0.05 0.04 0.05 0.05 0.06 0.05 0.04 0.04 0.03 0.03 0.03 0.04 0.05 0.04 0.02 0.02 0.01 0.01
0.04 0.03 0.03 0.03 0.03 0.03 0.03 0.03 0.03 0.03 0.04 0.04 0.04 0.03 0.03 0.03 0.04 0.04 0.04 0.05 0.05 0.05 0.05 0.05 0.06 0.06 0.05 0.04 0.04 0.03 0.03 0.04 0.05 0.05 0.05 0.03 0.02 0.01
0.03 0.02 0.02 0.02 0.02 0.03 0.03 0.03 0.03 0.02 0.02 0.03 0.04 0.04 0.05 0.05 0.05 0.05 0.05 0.05 0.05 0.06 0.05 0.04 0.04 0.05 0.06 0.06 0.05 0.04 0.04 0.05 0.04 0.04 0.05 0.05 0.03 0.02
0.04 0.03 0.02 0.01 0.01 0.02 0.02 0.03 0.03 0.02 0.02 0.03 0.03 0.03 0.04 0.04 0.05 0.05 0.04 0.04 0.05 0.05 0.05 0.04 0.04 0.05 0.06 0.06 0.04 0.02 0.02 0.03 0.03 0.03 0.04 0.04 0.03 0.03
0.04 0.03 0.02 0.01 0.01 0.01 0.02 0.02 0.03 0.03 0.03 0.03 0.04 0.03 0.03 0.03 0.04 0.04 0.04 0.04 0.04 0.04 0.03 0.03 0.04 0.05 0.05 0.04 0.03 0.02 0.03 0.03 0.04 0.03 0.02 0.02 0.02 0.02
0.04 0.03 0.03 0.02 0.01 0.01 0.02 0.02 0.02 0.03 0.03 0.03 0.03 0.03 0.03 0.03 0.03 0.03 0.03 0.03 0.04 0.03 0.03 0.04 0.05 0.05 0.04 0.03 0.03 0.02 0.02 0.03 0.04 0.03 0.01 0.01 0.01 0.02
MSLP
1013.68 1013.84 1014.05 1014.28 1014.51 1014.70 1014.82 1014.84 1014.75 1014.54 1014.23 1013.83 1013.38 1012.92 1012.47 1012.07 1011.75 1011.51 1011.37 1011.33 1011.37 1011.49 1011.65 1011.85 1012.05 1012.24 1012.40 1012.55 1012.67 1012.78 1012.88 1012.98 1013.10 1013.22 1013.36 1013.51 1013.66 1013.83
1012.70 1012.85 1013.05 1013.29 1013.55 1013.78 1013.96 1014.06 1014.05 1013.93 1013.70 1013.38 1012.98 1012.55 1012.11 1011.69 1011.33 1011.05 1010.86 1010.76 1010.75 1010.82 1010.96 1011.12 1011.31 1011.49 1011.65 1011.80 1011.92 1012.03 1012.13 1012.23 1012.33 1012.45 1012.58 1012.72 1012.87 1013.03
1011.72 1011.83 1012.01 1012.24 1012.50 1012.75 1012.98 1013.13 1013.20 1013.17 1013.03 1012.79 1012.47 1012.10 1011.69 1011.30 1010.93 1010.63 1010.40 1010.26 1010.20 1010.22 1010.30 1010.43 1010.57 1010.73 1010.87 1011.00 1011.12 1011.22 1011.32 1011.43 1011.53 1011.65 1011.79 1011.93 1012.08 1012.24
1010.79 1010.86 1010.99 1011.18 1011.41 1011.66 1011.90 1012.09 1012.21 1012.25 1012.20 1012.06 1011.83 1011.53 1011.20 1010.85 1010.52 1010.23 1009.99 1009.82 1009.72 1009.68 1009.70 1009.76 1009.85 1009.95 1010.05 1010.15 1010.25 1010.34 1010.44 1010.55 1010.68 1010.81 1010.96 1011.12 1011.29 1011.46
1009.97 1009.97 1010.04 1010.16 1010.34 1010.55 1010.76 1010.96 1011.11 1011.21 1011.23 1011.17 1011.04 1010.85 1010.61 1010.35 1010.08 1009.83 1009.60 1009.42 1009.29 1009.20 1009.15 1009.14 1009.14 1009.17 1009.20 1009.24 1009.30 1009.37 1009.47 1009.59 1009.73 1009.90 1010.09 1010.28 1010.48 1010.68
1009.26 1009.19 1009.17 1009.21 1009.31 1009.46 1009.63 1009.80 1009.96 1010.08 1010.16 1010.18 1010.14 1010.06 1009.93 1009.77 1009.59 1009.41 1009.23 1009.06 1008.91 1008.78 1008.66 1008.55 1008.46 1008.39 1008.33 1008.29 1008.29 1008.33 1008.41 1008.54 1008.71 1008.91 1009.15 1009.39 1009.64 1009.88
1008.68 1008.52 1008.41 1008.36 1008.37 1008.44 1008.55 1008.68 1008.81 1008.94 1009.05 1009.13 1009.18 1009.19 1009.18 1009.13 1009.06 1008.96 1008.84 1008.71 1008.55 1008.38 1008.20 1008.01 1007.81 1007.63 1007.47 1007.34 1007.26 1007.25 1007.30 1007.43 1007.62 1007.87 1008.16 1008.46 1008.77 1009.06
1008.20 1007.96 1007.76 1007.63 1007.55 1007.54 1007.57 1007.64 1007.74 1007.85 1007.97 1008.09 1008.20 1008.29 1008.37 1008.43 1008.46 1008.45 1008.41 1008.32 1008.18 1007.99 1007.75 1007.49 1007.20 1006.91 1006.64 1006.41 1006.26 1006.18 1006.20 1006.32 1006.53 1006.81 1007.14 1007.50 1007.87 1008.22
1007.83 1007.51 1007.23 1007.02 1006.87 1006.79 1006.75 1006.76 1006.80 1006.87 1006.97 1007.09 1007.23 1007.37 1007.51 1007.65 1007.76 1007.84 1007.86 1007.82 1007.71 1007.52 1007.26 1006.95 1006.59 1006.22 1005.86 1005.55 1005.32 1005.19 1005.17 1005.27 1005.48 1005.78 1006.15 1006.56 1006.97 1007.37
1007.55 1007.17 1006.84 1006.56 1006.36 1006.21 1006.11 1006.05 1006.03 1006.05 1006.10 1006.18 1006.30 1006.44 1006.60 1006.77 1006.93 1007.06 1007.14 1007.16 1007.08 1006.92 1006.67 1006.34 1005.95 1005.54 1005.13 1004.77 1004.49 1004.31 1004.26 1004.34 1004.54 1004.85 1005.24 1005.67 1006.12 1006.55
1007.39 1006.95 1006.58 1006.27 1006.02 1005.82 1005.66 1005.54 1005.45 1005.39 1005.36 1005.36 1005.41 1005.50 1005.63 1005.78 1005.94 1006.09 1006.20 1006.26 1006.23 1006.11 1005.90 1005.60 1005.23 1004.83 1004.43 1004.06 1003.76 1003.57 1003.50 1003.56 1003.76 1004.06 1004.44 1004.88 1005.34 1005.79
1007.37 1006.90 1006.49 1006.16 1005.88 1005.64 1005.43 1005.24 1005.07 1004.90 1004.76 1004.65 1004.58 1004.57 1004.60 1004.68 1004.79 1004.92 1005.03 1005.11 1005.13 1005.07 1004.93 1004.70 1004.41 1004.07 1003.72 1003.39 1003.12 1002.95 1002.88 1002.94 1003.12 1003.41 1003.78 1004.21 1004.66 1005.11
1007.53 1007.03 1006.60 1006.25 1005.95 1005.68 1005.42 1005.15 1004.88 1004.60 1004.32 1004.07 1003.84 1003.67 1003.57 1003.52 1003.54 1003.60 1003.69 1003.77 1003.83 1003.84 1003.78 1003.66 1003.47 1003.24 1002.99 1002.75 1002.55 1002.42 1002.38 1002.44 1002.62 1002.89 1003.24 1003.65 1004.08 1004.51
1007.90 1007.38 1006.94 1006.57 1006.25 1005.94 1005.63 1005.28 1004.91 1004.50 1004.07 1003.64 1003.24 1002.89 1002.61 1002.41 1002.30 1002.26 1002.29 1002.36 1002.44 1002.50 1002.54 1002.53 1002.47 1002.38 1002.25 1002.12 1002.02 1001.95 1001.96 1002.04 1002.22 1002.47 1002.80 1003.17 1003.58 1004.00
1008.48 1007.96 1007.51 1007.13 1006.78 1006.43 1006.06 1005.63 1005.15 1004.61 1004.03 1003.43 1002.85 1002.31 1001.85 1001.48 1001.22 1001.06 1001.01 1001.04 1001.12 1001.23 1001.34 1001.44 1001.51 1001.54 1001.55 1001.54 1001.53 1001.55 1001.60 1001.71 1001.88 1002.13 1002.43 1002.78 1003.16 1003.56
1009.27 1008.75 1008.31 1007.91 1007.54 1007.15 1006.71 1006.20 1005.62 1004.97 1004.25 1003.50 1002.76 1002.05 1001.41 1000.88 1000.48 1000.20 1000.05 1000.02 1000.08 1000.21 1000.37 1000.54 1000.70 1000.85 1000.96 1001.05 1001.13 1001.21 1001.31 1001.44 1001.62 1001.85 1002.12 1002.45 1002.81 1003.19
1010.23 1009.73 1009.29 1008.88 1008.48 1008.05 1007.56 1006.99 1006.33 1005.58 1004.77 1003.91 1003.04 1002.20 1001.43 1000.77 1000.24 999.85 999.60 999.50 999.51 999.62 999.79 1000.00 1000.21 1000.41 1000.59 1000.75 1000.88 1001.01 1001.13 1001.27 1001.44 1001.66 1001.91 1002.21 1002.55 1002.91
1011.29 1010.82 1010.40 1009.98 1009.56 1009.10 1008.57 1007.95 1007.24 1006.45 1005.58 1004.66 1003.72 1002.81 1001.97 1001.22 1000.60 1000.12 999.79 999.61 999.56 999.61 999.75 999.94 1000.15 1000.36 1000.55 1000.72 1000.87 1001.00 1001.13 1001.26 1001.41 1001.60 1001.83 1002.10 1002.42 1002.77
1012.37 1011.95 1011.54 1011.13 1010.70 1010.21 1009.66 1009.02 1008.30 1007.50 1006.62 1005.70 1004.76 1003.84 1002.98 1002.20 1001.54 1001.00 1000.61 1000.35 1000.23 1000.22 1000.29 1000.41 1000.57 1000.74 1000.90 1001.04 1001.16 1001.26 1001.36 1001.47 1001.59 1001.75 1001.95 1002.19 1002.48 1002.81
1013.39 1013.02 1012.64 1012.24 1011.81 1011.31 1010.76 1010.13 1009.42 1008.65 1007.82 1006.95 1006.06 1005.19 1004.36 1003.61 1002.95 1002.40 1001.96 1001.65 1001.46 1001.36 1001.35 1001.39 1001.46 1001.55 1001.64 1001.71 1001.78 1001.83 1001.88 1001.95 1002.03 1002.15 1002.32 1002.53 1002.78 1003.07
1014.28 1013.97 1013.63 1013.24 1012.81 1012.32 1011.78 1011.17 1010.51 1009.80 1009.04 1008.26 1007.47 1006.69 1005.95 1005.26 1004.64 1004.11 1003.67 1003.33 1003.08 1002.91 1002.80 1002.74 1002.72 1002.72 1002.72 1002.71 1002.71 1002.70 1002.70 1002.72 1002.76 1002.84 1002.97 1003.13 1003.35 1003.60
1015.00 1014.74 1014.43 1014.06 1013.64 1013.17 1012.64 1012.07 1011.47 1010.83 1010.18 1009.51 1008.84 1008.18 1007.55 1006.96 1006.41 1005.93 1005.51 1005.15 1004.87 1004.64 1004.46 1004.32 1004.22 1004.12 1004.04 1003.96 1003.89 1003.83 1003.78 1003.76 1003.76 1003.80 1003.88 1004.01 1004.17 1004.37
1015.51 1015.31 1015.02 1014.68 1014.27 1013.81 1013.31 1012.79 1012.24 1011.69 1011.13 1010.58 1010.03 1009.51 1008.99 1008.51 1008.06 1007.64 1007.26 1006.92 1006.62 1006.37 1006.14 1005.95 1005.78 1005.62 1005.48 1005.35 1005.23 1005.13 1005.05 1004.99 1004.97 1004.98 1005.02 1005.11 1005.22 1005.36
Thickness
5748 5746 5744 5743 5742 5740 5737 5733 5725 5719 5721 5727 5727 5730 5730 5729 5729 5728 5727 5725 5723 5721 5719 5717 5715 5714 5713 5711 5709 5707 5706 5704 5703 5702 5701 5700 5699 5697
5746 5744 5742 5741 5739 5738 5736 5732 5729 5723 5718 5723 5724 5726 5725 5725 5724 5724 5723 5721 5719 5718 5716 5714 5712 5711 5710 5708 5706 5704 5702 5700 5699 5698 5697 5696 5695 5693
5743 5741 5739 5739 5737 5735 5733 5730 5727 5723 5718 5720 5722 5722 5721 5719 5719 5719 5718 5717 5716 5714 5712 5710 5708 5707 5705 5704 5702 5700 5698 5697 5695 5694 5692 5691 5690 5689
5739 5738 5736 5736 5733 5732 5730 5727 5725 5723 5718 5715 5716 5716 5715 5715 5714 5713 5712 5712 5711 5709 5708 5706 5704 5703 5701 5700 5698 5696 5694 5692 5690 5689 5688 5687 5686 5684
5737 5735 5733 5731 5729 5728 5726 5724 5722 5721 5717 5713 5712 5711 5710 5710 5708 5707 5706 5705 5705 5703 5702 5701 5700 5698 5697 5695 5693 5691 5690 5688 5686 5684 5682 5681 5680 5679
5734 5732 5731 5729 5727 5725 5723 5721 5719 5715 5713 5709 5707 5705 5704 5704 5701 5699 5697 5697 5696 5697 5696 5695 5694 5693 5691 5690 5688 5687 5685 5683 5681 5679 5677 5676 5674 5673
5729 5728 5727 5727 5725 5723 5721 5718 5715 5711 5707 5704 5701 5699 5697 5695 5694 5693 5690 5688 5688 5688 5687 5687 5686 5685 5685 5684 5683 5681 5680 5678 5675 5673 5671 5670 5668 5666
5723 5722 5722 5721 5720 5719 5718 5715 5713 5708 5703 5699 5696 5694 5692 5691 5689 5687 5683 5680 5678 5681 5679 5678 5679 5677 5677 5677 5677 5676 5674 5671 5669 5667 5665 5663 5661 5660
5718 5716 5716 5716 5714 5712 5711 5710 5708 5706 5704 5699 5693 5691 5689 5688 5685 5682 5679 5676 5674 5675 5673 5670 5671 5669 5670 5671 5671 5669 5667 5665 5663 5661 5659 5657 5655 5653
5713 5711 5709 5707 5707 5705 5704 5702 5700 5698 5697 5695 5692 5690 5688 5685 5683 5680 5676 5672 5670 5669 5667 5663 5663 5662 5664 5663 5663 5662 5660 5658 5657 5655 5653 5650 5648 5647
5706 5705 5703 5701 5700 5699 5696 5693 5691 5691 5691 5689 5688 5685 5683 5680 5677 5673 5668 5664 5660 5660 5659 5657 5656 5655 5655 5655 5656 5655 5654 5652 5650 5648 5646 5643 5641 5639
5697 5697 5696 5694 5692 5690 5687 5684 5682 5682 5681 5681 5679 5677 5675 5673 5671 5668 5664 5658 5654 5652 5653 5650 5649 5647 5645 5648 5648 5648 5646 5644 5642 5641 5639 5637 5634 5632
5688 5687 5687 5686 5684 5682 5680 5678 5676 5675 5673 5671 5669 5668 5666 5665 5663 5662 5660 5656 5651 5648 5649 5646 5643 5640 5638 5638 5638 5639 5638 5636 5635 5633 5631 5630 5627 5625
5680 5679 5678 5676 5675 5674 5672 5671 5670 5668 5665 5662 5660 5658 5657 5656 5655 5654 5653 5650 5649 5647 5646 5643 5639 5636 5632 5629 5629 5630 5630 5629 5627 5625 5624 5622 5620 5618
5672 5671 5669 5668 5666 5665 5664 5663 5661 5658 5655 5652 5650 5650 5650 5649 5648 5645 5644 5642 5641 5641 5639 5638 5635 5632 5628 5625 5623 5622 5620 5620 5619 5618 5616 5614 5613 5611
5663 5661 5659 5658 5657 5656 5654 5653 5651 5649 5646 5644 5642 5642 5641 5640 5639 5637 5635 5633 5631 5630 5632 5631 5629 5626 5623 5620 5618 5615 5614 5612 5612 5611 5609 5608 5607 5605
5653 5651 5649 5647 5645 5644 5642 5641 5640 5639 5636 5634 5633 5633 5632 5631 5629 5629 5627 5624 5621 5620 5621 5621 5621 5619 5617 5615 5611 5610 5608 5607 5607 5606 5603 5601 5601 5600
5645 5641 5639 5637 5635 5633 5631 5629 5629 5628 5627 5625 5624 5623 5622 5621 5619 5619 5618 5616 5614 5613 5612 5612 5611 5609 5607 5607 5606 5604 5603 5602 5601 5599 5597 5595 5594 5595
5635 5632 5630 5628 5626 5624 5623 5620 5619 5618 5617 5616 5614 5613 5612 5611 5611 5610 5609 5608 5606 5606 5605 5604 5602 5600 5596 5596 5599 5600 5597 5596 5594 5593 5591 5590 5589 5590
5626 5624 5622 5620 5618 5615 5614 5612 5611 5609 5608 5607 5605 5604 5603 5603 5602 5601 5600 5599 5598 5597 5596 5596 5595 5594 5591 5590 5590 5591 5593 5591 5589 5587 5586 5584 5583 5584
5618 5616 5614 5612 5610 5608 5606 5605 5603 5601 5599 5598 5597 5596 5595 5593 5593 5592 5591 5591 5590 5589 5588 5588 5589 5589 5587 5585 5583 5583 5585 5585 5585 5582 5580 5578 5577 5576
5610 5608 5607 5605 5603 5601 5599 5597 5595 5593 5591 5589 5588 5587 5586 5585 5584 5583 5583 5582 5581 5581 5581 5581 5582 5581 5579 5577 5576 5576 5577 5578 5578 5578 5577 5576 5573 5572
5603 5601 5599 5597 5595 5593 5591 5588 5587 5585 5583 5581 5580 5578 5577 5576 5575 5575 5575 5574 5574 5573 5573 5573 5572 5572 5571 5571 5569 5569 5571 5570 5570 5569 5569 5571 5571 5572